cover

 

Get it on iTunes StoreListen on Apple Music

Black Power Productions

#Trackname / Key / BPM / Publish dateArtists, Remixers / Label
1 0 bpm, 7A / D minor, 2002-04-04, Hip-Hop,  0  19
2 98 bpm, 2A / Eb minor, 2002-04-04, Hip-Hop,  0  19
3 90 bpm, 8A / A minor, 2002-04-04, Hip-Hop,  0  19
4 103 bpm, 5B / Eb major, 2002-04-04, Hip-Hop,  0  19
5 98 bpm, 8A / A minor, 2002-04-04, Hip-Hop,  0  19
6 88 bpm, 7B / F major, 2002-04-04, Hip-Hop,  0  19
7 96 bpm, 8A / A minor, 2002-04-04, Hip-Hop,  0  19
8 101 bpm, 8A / A minor, 2002-04-04, Hip-Hop,  0  19
9 125 bpm, 8A / A minor, 2002-04-04, Hip-Hop,  0  19
10 99 bpm, 7A / D minor, 2002-04-04, Hip-Hop,  0  19
11 138 bpm, 8A / A minor, 2002-04-04, Hip-Hop,  0  19
12 98 bpm, 2A / Eb minor, 2002-04-04, Hip-Hop,  0  19
13 86 bpm, 11A / F# minor, 2002-04-04, Hip-Hop,  0  19
14 92 bpm, 11B / A major, 2002-04-04, Hip-Hop,  0  19
15 98 bpm, 11A / F# minor, 2002-04-04, Hip-Hop,  0  19
16 102 bpm, 4A / F minor, 2002-04-04, Hip-Hop,  0  19
17 90 bpm, 2A / Eb minor, 2002-04-04, Hip-Hop,  0  19
18 114 bpm, 11B / A major, 2002-04-04, Hip-Hop,  0  19
19 79 bpm, 9B / G major, 2002-04-04, Hip-Hop,  0  19
20 95 bpm, 2A / Eb minor, 1996-09-24, Hip-Hop,  0  13
21 89 bpm, 7A / D minor, 1996-09-24, Hip-Hop,  0  13
22 97 bpm, 7A / D minor, 1996-09-24, Hip-Hop,  0  13
23 91 bpm, 3A / Bb minor, 1996-09-24, Hip-Hop,  0  13
24 92 bpm, 10B / D major, 1996-09-24, Hip-Hop,  0  13
25 100 bpm, 11A / F# minor, 1996-09-24, Hip-Hop,  0  13
26 94 bpm, 7A / D minor, 1996-09-24, Hip-Hop,  0  13
27 99 bpm, 8B / C major, 1996-09-24, Hip-Hop,  0  13
28 92 bpm, 11A / F# minor, 1996-09-24, Hip-Hop,  0  13
29 104 bpm, 11A / F# minor, 1996-09-24, Hip-Hop,  0  13
30 97 bpm, 5A / C minor, 1996-09-24, Hip-Hop,  0  13
31 87 bpm, 8A / A minor, 1996-09-24, Hip-Hop,  0  13
32 89 bpm, 3A / Bb minor, 1996-09-24, Hip-Hop,  0  13
33 83 bpm, 5A / C minor, 1996-09-03, Hip-Hop,  0  16
34 97 bpm, 3A / Bb minor, 1996-09-03, Hip-Hop,  0  16
35 84 bpm, 7B / F major, 1996-09-03, Hip-Hop,  0  16
36 85 bpm, 2A / Eb minor, 1996-09-03, Hip-Hop,  0  16
37 104 bpm, 10B / D major, 1996-09-03, Hip-Hop,  0  16
38 83 bpm, 2A / Eb minor, 1996-09-03, Hip-Hop,  0  16
39 93 bpm, 7B / F major, 1996-09-03, Hip-Hop,  0  16
40 90 bpm, 3B / Db major, 1996-09-03, Hip-Hop,  0  16
41 100 bpm, 3A / Bb minor, 1996-09-03, Hip-Hop,  0  16
42 90 bpm, 2A / Eb minor, 1996-09-03, Hip-Hop,  0  16
43 95 bpm, 11B / A major, 1996-09-03, Hip-Hop,  0  16
44 99 bpm, 12A / Db minor, 1996-09-03, Hip-Hop,  0  16
45 90 bpm, 3A / Bb minor, 1996-09-03, Hip-Hop,  0  16
46 87 bpm, 6B / Bb major, 1996-09-03, Hip-Hop,  0  16
47 90 bpm, 2B / F# major, 1996-09-03, Hip-Hop,  0  16
48 111 bpm, 5A / C minor, 1996-09-03, Hip-Hop,  0  16
49 148 bpm, 3B / Db major, 1995-10-30, Hip-Hop,  0  14
50 90 bpm, 1B / B major, 1995-10-30, Hip-Hop,  0  14
51 89 bpm, 3A / Bb minor, 1995-10-30, Hip-Hop,  0  14
52 94 bpm, 4A / F minor, 1995-10-30, Hip-Hop,  0  14
53 96 bpm, 7B / F major, 1995-10-30, Hip-Hop,  0  14
54 89 bpm, 3A / Bb minor, 1995-10-30, Hip-Hop,  0  14
55 95 bpm, 5A / C minor, 1995-10-30, Hip-Hop,  0  14
56 101 bpm, 5A / C minor, 1995-10-30, Hip-Hop,  0  14
57 87 bpm, 6A / G minor, 1995-10-30, Hip-Hop,  0  14
58 85 bpm, 5A / C minor, 1995-10-30, Hip-Hop,  0  14
59 84 bpm, 5A / C minor, 1995-10-30, Hip-Hop,  0  14
60 90 bpm, 3A / Bb minor, 1995-10-30, Hip-Hop,  0  14
61 103 bpm, 3A / Bb minor, 1995-10-30, Hip-Hop,  0  14
62 129 bpm, 9A / E minor, 1995-10-30, Hip-Hop,  0  14
63 90 bpm, 7B / F major, 1994-07-25, Hip-Hop,  0  11
64 96 bpm, 9B / G major, 1994-07-25, Hip-Hop,  0  11
65 98 bpm, 3A / Bb minor, 1994-07-25, Hip-Hop,  0  11
66 95 bpm, 1A / Ab minor, 1994-07-25, Hip-Hop,  0  11
67 91 bpm, 8A / A minor, 1994-07-25, Hip-Hop,  0  11
68 89 bpm, 3B / Db major, 1994-07-25, Hip-Hop,  0  11
69 99 bpm, 11A / F# minor, 1994-07-25, Hip-Hop,  0  11
70 88 bpm, 3A / Bb minor, 1994-07-25, Hip-Hop,  0  11
71 89 bpm, 8A / A minor, 1994-07-25, Hip-Hop,  0  11
72 87 bpm, 10A / B minor, 1994-07-25, Hip-Hop,  0  11
73 142 bpm, 6B / Bb major, 1994-07-25, Hip-Hop,  0  11
×

Sign in

Sign in to access your personalized pages, follow artists and labels you love, and create playlists fromyour favorite tracks.

Please wait...